Previsão horária em Abergavenny

Hoje, 17 Abril, Sábado

Tempo Temperatura Precipitação Vento Pressão Humidade
00:00 +2°C° 0 mm 1 m/s 756 mmHg 84%
01:00 +2°C° 0 mm 1 m/s 756 mmHg 84%
02:00 +2°C° 0 mm 1 m/s 756 mmHg 85%
03:00 +1°C° 0 mm 1 m/s 756 mmHg 85%
04:00 +1°C° 0 mm 1 m/s 756 mmHg 85%
05:00 +1°C° 0 mm 1 m/s 756 mmHg 85%
06:00 +2°C° 0 mm 1 m/s 756 mmHg 85%
07:00 +4°C° 0 mm 1 m/s 756 mmHg 78%
08:00 +6°C° 0 mm 1 m/s 756 mmHg 71%
09:00 +7°C° 0 mm 2 m/s 756 mmHg 64%
10:00 +8°C° 0 mm 2 m/s 756 mmHg 61%
11:00 +9°C° 0 mm 2 m/s 756 mmHg 57%
12:00 +9°C° 0 mm 2 m/s 755 mmHg 54%
13:00 +10°C° 0 mm 2 m/s 755 mmHg 53%
14:00 +11°C° 0 mm 1 m/s 754 mmHg 53%
15:00 +12°C° 0 mm 1 m/s 754 mmHg 53%
16:00 +11°C° 0 mm 1 m/s 754 mmHg 59%
17:00 +10°C° 0 mm 1 m/s 754 mmHg 65%
18:00 +10°C° 0 mm 1 m/s 753 mmHg 70%
19:00 +8°C° 0 mm 1 m/s 754 mmHg 73%
20:00 +7°C° 0 mm 1 m/s 754 mmHg 76%
21:00 +4°C° 0 mm 0 m/s 754 mmHg 78%
22:00 +4°C° 0 mm 0 m/s 754 mmHg 80%
23:00 +3°C° 0 mm 0 m/s 754 mmHg 81%

Amanhã, 18 Abril, Domingo

Tempo Temperatura Precipitação Vento Pressão Humidade
00:00 +2°C° 0 mm 0 m/s 753 mmHg 83%
01:00 +2°C° 0 mm 0 m/s 753 mmHg 84%
02:00 +2°C° 0 mm 0 m/s 753 mmHg 84%
03:00 +3°C° 0 mm 1 m/s 753 mmHg 84%
04:00 +2°C° 0 mm 0 m/s 753 mmHg 84%
05:00 +2°C° 0 mm 0 m/s 753 mmHg 83%
06:00 +3°C° 0 mm 0 m/s 753 mmHg 82%
07:00 +4°C° 0 mm 0 m/s 753 mmHg 78%
08:00 +6°C° 0 mm 0 m/s 753 mmHg 73%
09:00 +7°C° 0 mm 0 m/s 753 mmHg 69%
10:00 +8°C° 0 mm 0 m/s 752 mmHg 66%
11:00 +11°C° 0 mm 1 m/s 752 mmHg 63%
12:00 +12°C° 0 mm 1 m/s 752 mmHg 60%
13:00 +12°C° 0 mm 1 m/s 752 mmHg 60%
14:00 +12°C° 0 mm 1 m/s 751 mmHg 60%
15:00 +12°C° 0 mm 2 m/s 751 mmHg 59%
16:00 +11°C° 0 mm 1 m/s 751 mmHg 64%
17:00 +11°C° 0 mm 1 m/s 751 mmHg 69%
18:00 +10°C° 0 mm 1 m/s 751 mmHg 74%
19:00 +9°C° 0 mm 1 m/s 751 mmHg 75%
20:00 +9°C° 0 mm 1 m/s 751 mmHg 76%
21:00 +7°C° 0 mm 0 m/s 751 mmHg 76%
22:00 +7°C° 0 mm 0 m/s 751 mmHg 78%
23:00 +6°C° 0 mm 0 m/s 751 mmHg 79%

Depois de amanhã, 19 Abril, Segunda-feira

Tempo Temperatura Precipitação Vento Pressão Humidade
00:00 +6°C° 0 mm 0 m/s 751 mmHg 80%
01:00 +5°C° 0 mm 0 m/s 751 mmHg 81%
02:00 +4°C° 0 mm 0 m/s 750 mmHg 83%
03:00 +4°C° 0 mm 0 m/s 750 mmHg 84%
04:00 +3°C° 0 mm 0 m/s 750 mmHg 84%
05:00 +4°C° 0 mm 1 m/s 750 mmHg 85%
06:00 +4°C° 0 mm 1 m/s 750 mmHg 85%
07:00 +6°C° 0 mm 1 m/s 750 mmHg 79%
08:00 +8°C° 0 mm 1 m/s 750 mmHg 73%
09:00 +9°C° 0 mm 2 m/s 750 mmHg 67%
10:00 +10°C° 0 mm 2 m/s 750 mmHg 64%
11:00 +12°C° 0 mm 2 m/s 750 mmHg 61%
12:00 +12°C° 0 mm 2 m/s 750 mmHg 58%
13:00 +13°C° 0 mm 2 m/s 749 mmHg 57%
14:00 +13°C° 0 mm 2 m/s 749 mmHg 56%
15:00 +13°C° 0 mm 2 m/s 748 mmHg 55%
16:00 +13°C° 0 mm 2 m/s 748 mmHg 60%
17:00 +12°C° 0 mm 1 m/s 748 mmHg 65%
18:00 +11°C° 0 mm 1 m/s 748 mmHg 69%
19:00 +11°C° 0 mm 1 m/s 748 mmHg 70%
20:00 +10°C° 0 mm 1 m/s 748 mmHg 71%
21:00 +8°C° 0 mm 0 m/s 748 mmHg 71%
22:00 +8°C° 0 mm 0 m/s 748 mmHg 72%
23:00 +8°C° 0 mm 0 m/s 748 mmHg 72%

20 Abril, Terça-feira

Tempo Temperatura Precipitação Vento Pressão Humidade
00:00 +8°C° 0 mm 0 m/s 748 mmHg 73%
01:00 +8°C° 0 mm 0 m/s 748 mmHg 74%
02:00 +8°C° 0 mm 0 m/s 748 mmHg 74%
03:00 +8°C° 0 mm 0 m/s 748 mmHg 75%
04:00 +8°C° 0 mm 0 m/s 748 mmHg 75%
05:00 +8°C° 0 mm 0 m/s 748 mmHg 76%
06:00 +8°C° 0 mm 0 m/s 748 mmHg 76%
07:00 +8°C° 0 mm 0 m/s 749 mmHg 75%
08:00 +9°C° 0 mm 0 m/s 749 mmHg 73%
09:00 +9°C° 0 mm 0 m/s 749 mmHg 72%
10:00 +10°C° 0 mm 0 m/s 749 mmHg 69%
11:00 +10°C° 0 mm 0 m/s 749 mmHg 67%
12:00 +12°C° 0 mm 1 m/s 749 mmHg 64%
13:00 +12°C° 0 mm 1 m/s 749 mmHg 64%
14:00 +12°C° 0 mm 1 m/s 749 mmHg 63%
15:00 +13°C° 0 mm 1 m/s 749 mmHg 62%
16:00 +12°C° 0 mm 1 m/s 749 mmHg 67%
17:00 +12°C° 0 mm 1 m/s 749 mmHg 71%
18:00 +12°C° 0 mm 1 m/s 749 mmHg 76%
19:00 +11°C° 0.1 mm 1 m/s 750 mmHg 78%
20:00 +10°C° 0.1 mm 1 m/s 750 mmHg 80%
21:00 +8°C° 0.1 mm 2 m/s 750 mmHg 82%
22:00 +8°C° 0 mm 2 m/s 751 mmHg 82%
23:00 +8°C° 0 mm 2 m/s 751 mmHg 83%

21 Abril, Quarta-feira

Tempo Temperatura Precipitação Vento Pressão Humidade
00:00 +7°C° 0 mm 2 m/s 751 mmHg 83%
01:00 +7°C° 0 mm 2 m/s 751 mmHg 85%
02:00 +7°C° 0 mm 2 m/s 751 mmHg 88%
03:00 +6°C° 0 mm 2 m/s 751 mmHg 90%
04:00 +6°C° 0 mm 2 m/s 751 mmHg 91%
05:00 +6°C° 0 mm 2 m/s 752 mmHg 91%
06:00 +6°C° 0 mm 2 m/s 752 mmHg 92%
07:00 +7°C° 0 mm 2 m/s 752 mmHg 89%
08:00 +7°C° 0 mm 3 m/s 753 mmHg 85%
09:00 +8°C° 0 mm 3 m/s 753 mmHg 82%
10:00 +9°C° 0 mm 3 m/s 753 mmHg 76%
11:00 +10°C° 0 mm 3 m/s 753 mmHg 71%
12:00 +11°C° 0 mm 3 m/s 753 mmHg 65%
13:00 +12°C° 0 mm 3 m/s 753 mmHg 63%
14:00 +12°C° 0 mm 3 m/s 752 mmHg 61%
15:00 +13°C° 0 mm 2 m/s 752 mmHg 59%
16:00 +13°C° 0 mm 2 m/s 752 mmHg 61%
17:00 +12°C° 0 mm 2 m/s 752 mmHg 64%
18:00 +12°C° 0 mm 2 m/s 752 mmHg 67%
19:00 +11°C° 0 mm 1 m/s 753 mmHg 67%
20:00 +10°C° 0 mm 1 m/s 753 mmHg 67%
21:00 +9°C° 0 mm 1 m/s 753 mmHg 66%
22:00 +8°C° 0 mm 1 m/s 754 mmHg 71%
23:00 +7°C° 0 mm 1 m/s 754 mmHg 75%

22 Abril, Quinta-feira

Tempo Temperatura Precipitação Vento Pressão Humidade
00:00 +6°C° 0 mm 1 m/s 754 mmHg 79%
01:00 +5°C° 0 mm 1 m/s 754 mmHg 80%
02:00 +5°C° 0 mm 1 m/s 754 mmHg 82%
03:00 +4°C° 0 mm 1 m/s 754 mmHg 83%
04:00 +4°C° 0 mm 1 m/s 754 mmHg 84%
05:00 +4°C° 0 mm 1 m/s 754 mmHg 85%
06:00 +5°C° 0 mm 1 m/s 754 mmHg 86%
07:00 +5°C° 0 mm 2 m/s 754 mmHg 78%
08:00 +7°C° 0 mm 2 m/s 754 mmHg 71%
09:00 +9°C° 0 mm 3 m/s 754 mmHg 63%
10:00 +10°C° 0 mm 4 m/s 754 mmHg 61%
11:00 +11°C° 0 mm 4 m/s 754 mmHg 58%
12:00 +12°C° 0 mm 4 m/s 754 mmHg 55%
13:00 +12°C° 0 mm 5 m/s 754 mmHg 55%
14:00 +12°C° 0 mm 5 m/s 754 mmHg 56%
15:00 +13°C° 0 mm 5 m/s 753 mmHg 56%
16:00 +12°C° 0 mm 4 m/s 753 mmHg 61%
17:00 +11°C° 0 mm 4 m/s 754 mmHg 67%
18:00 +11°C° 0 mm 3 m/s 754 mmHg 72%
19:00 +9°C° 0 mm 3 m/s 754 mmHg 77%
20:00 +7°C° 0 mm 3 m/s 754 mmHg 82%
21:00 +5°C° 0 mm 2 m/s 754 mmHg 87%
22:00 +4°C° 0 mm 2 m/s 754 mmHg 87%
23:00 +4°C° 0 mm 2 m/s 753 mmHg 88%
Mostrar mais